Find Starlink 38317

NORAD ID: 100458 Int'l Des: 2026-193 Owner: SPXS Country: US Constellation: starlink operational

当前视图

正在加载3D地球...

About Starlink 38317

Starlink 38317 (NORAD 100458) is a starlink constellation satellite launched Aug 22, 2026 by SPXS of US. with a mass of 575.00 kg.

即将过境

Passes for default location (London). Set your location on the main map for personalized predictions.

高度历史

Loading altitude history...

两行轨道根数

1 A0458U 26193AB 26264.58980453 -.01057608 00000-0 -29229-1 0 9994
2 A0458 70.0001 71.7560 0002670 285.4233 74.6652 15.39476504 5857
Epoch: Sep 21, 2026 • Age: 10 hours

当前状态

高度 453.0 km
远地点 / 近地点 N/A
速度 7.64 km/s
星下点 7.07°N, 116.75°W
发射日期 Aug 22, 2026
运行时间 30 days
类型 internet

技术详情

分类 Payload
质量 575.00 kg
干质量 530.00 kg
长度 0.30 m
跨度 29.00 m
形状 ? Box + pan
制造商 SPXS
平台类型 Starlink V2MO
阶段状态 In Orbit
所有者/国家 SPXS/US

Most Searched